Weather History for Wooster, OH

Change the Weather History Date:

Sunday, February 10, 2013

  Actual Average Record
Temperature  
Mean Temperature 30 °F -  
Max Temperature 42 °F 35 °F 57 °F (2009)
Min Temperature 19 °F 20 °F -2 °F (2011)
Degree Days  
Heating Degree Days 34    
Moisture  
Dew Point 24 °F    
Average Humidity 68    
Maximum Humidity 85    
Minimum Humidity 55    
Precipitation  
Precipitation 0.00 in - - ()
Sea Level Pressure  
Sea Level Pressure 30.10 in    
Wind  
Wind Speed 7 mph (SSE)    
Max Wind Speed 17 mph    
Max Gust Speed 23 mph    
Visibility 10 miles    
Events      
Averages and records for this station are not official NWS values.
T = Trace of Precipitation, MM = Missing Value Source: NWS Daily Summary

Daily Weather History Graph

Daily Weather History Graph

Search for Another Location

Airport:

Trip Planner

Search our weather history database for the weather conditions in past years. The results will help you decide how hot, cold, wet, or windy it might be!

Date:

Astronomy

Feb. 10, 2013 Rise Set
Actual Time 7:27 AM EST 5:56 PM EST
Civil Twilight 6:59 AM EST 6:24 PM EST
Nautical Twilight 6:26 AM EST 6:57 PM EST
Astronomical Twilight 5:55 AM EST 7:29 PM EST
Moon 7:16 AM EST (2/10) 6:46 PM EST (2/10)
Length of Visible Light 11h 25m
Length of Day
10h 28m
New Moon, 0% of the Moon is Illuminated
Feb 10
New Moon
Feb 17
First Quarter
Feb 25
Full
Mar 4
Last Quarter
Mar 11
New

Hourly Weather History & Observations

Time (EST) Temp. Windchill Dew Point Humidity Pressure Visibility Wind Dir Wind Speed Gust Speed Precip Events Conditions
12:56 AM 19.0 °F 13.9 °F 15.1 °F 85% 30.34 in 8.0 mi SSE 3.5 mph - N/A   Clear
1:56 AM 19.0 °F 11.1 °F 14.0 °F 81% 30.32 in 8.0 mi SSE 5.8 mph - N/A   Clear
2:56 AM 21.0 °F 13.4 °F 15.1 °F 78% 30.31 in 10.0 mi SSE 5.8 mph - N/A   Clear
3:56 AM 19.9 °F 11.1 °F 15.1 °F 81% 30.28 in 10.0 mi SE 6.9 mph - N/A   Clear
4:56 AM 21.0 °F 16.2 °F 16.0 °F 81% 30.28 in 10.0 mi SE 3.5 mph - N/A   Clear
5:56 AM 21.0 °F 16.2 °F 16.0 °F 81% 30.29 in 10.0 mi ESE 3.5 mph - N/A   Clear
6:56 AM 21.9 °F 17.2 °F 17.1 °F 82% 30.28 in 10.0 mi SSE 3.5 mph - N/A   Clear
7:56 AM 24.1 °F 18.2 °F 18.0 °F 77% 30.27 in 9.0 mi ESE 4.6 mph - N/A   Clear
8:56 AM 25.0 °F 14.8 °F 19.0 °F 78% 30.25 in 10.0 mi SE 10.4 mph - N/A   Mostly Cloudy
9:56 AM 30.9 °F 23.5 °F 19.9 °F 64% 30.24 in 10.0 mi South 8.1 mph - N/A   Scattered Clouds
10:56 AM 35.1 °F 29.3 °F 23.0 °F 61% 30.22 in 10.0 mi SSE 6.9 mph - N/A   Clear
11:56 AM 37.9 °F 31.5 °F 23.0 °F 55% 30.20 in 10.0 mi South 9.2 mph - N/A   Clear
12:56 PM 39.0 °F 34.0 °F 24.1 °F 55% 30.12 in 10.0 mi SE 6.9 mph - N/A   Overcast
1:56 PM 41.0 °F 35.8 °F 26.1 °F 55% 30.10 in 10.0 mi SE 8.1 mph - N/A   Overcast
2:56 PM 41.0 °F 37.1 °F 27.0 °F 57% 30.07 in 10.0 mi SSE 5.8 mph - N/A   Overcast
3:56 PM 41.0 °F 37.1 °F 28.0 °F 60% 30.05 in 10.0 mi SE 5.8 mph - N/A   Overcast
4:56 PM 39.9 °F 35.8 °F 28.0 °F 63% 30.04 in 10.0 mi SSE 5.8 mph - N/A   Overcast
5:56 PM 39.0 °F 32.8 °F 27.0 °F 62% 30.01 in 10.0 mi SE 9.2 mph - N/A   Overcast
6:56 PM 39.9 °F 34.5 °F 27.0 °F 60% 29.98 in 10.0 mi SSE 8.1 mph - N/A   Mostly Cloudy
7:56 PM 41.0 °F 35.2 °F 27.0 °F 57% 29.94 in 10.0 mi SE 9.2 mph - N/A   Overcast
8:56 PM 39.9 °F 36.7 °F 28.0 °F 63% 29.93 in 10.0 mi SSE 4.6 mph - N/A   Overcast
9:56 PM 41.0 °F 35.2 °F 28.9 °F 62% 29.90 in 10.0 mi SSE 9.2 mph - N/A   Overcast
10:16 PM 42.8 °F 34.8 °F 28.4 °F 57% 29.86 in 10.0 mi South 17.3 mph 21.9 mph 0.00 in   Overcast
10:47 PM 42.8 °F 35.8 °F 33.8 °F 70% 29.86 in 10.0 mi South 13.8 mph 19.6 mph 0.00 in   Overcast
10:56 PM 42.1 °F 35.7 °F 33.1 °F 70% 29.88 in 10.0 mi South 11.5 mph - 0.00 in   Overcast
11:46 PM 42.8 °F 35.1 °F 35.6 °F 76% 29.82 in 10.0 mi South 16.1 mph 23.0 mph N/A   Overcast
11:56 PM 42.1 °F 34.2 °F 35.1 °F 76% 29.84 in 10.0 mi South 16.1 mph - N/A   Overcast